Weather History for KD50 - January, 2014

Change the Weather History Date:

Monday, January 13, 2014

  Actual Average (KISN) Record (KISN)
Temperature  
Mean Temperature 18 °F 10 °F  
Max Temperature 32 °F 21 °F 47 °F (1914)
Min Temperature 5 °F 0 °F -41 °F (1916)
Degree Days  
Heating Degree Days 46 55  
Month to date heating degree days 712  
Since 1 July heating degree days 4459  
Cooling Degree Days 0 0  
Month to date cooling degree days 0  
Year to date cooling degree days 0  
Moisture  
Dew Point 18 °F    
Average Humidity 93    
Maximum Humidity 100    
Minimum Humidity 80    
Precipitation  
Precipitation 0.30 in 0.02 in 0.28 in (1999)
Month to date precipitation 0.28  
Year to date precipitation 0.28  
Sea Level Pressure  
Sea Level Pressure 29.56 in    
Wind  
Wind Speed 11 mph (WSW)    
Max Wind Speed 37 mph    
Max Gust Speed 50 mph    
Visibility 9 miles    
Events Rain , Snow    
T = Trace of Precipitation, MM = Missing Value Source: NWS Daily Summary

Daily Weather History Graph

Daily Weather History Graph

Search for Another Location

Airport or City:

Trip Planner

Search our weather history database for the weather conditions in past years. The results will help you decide how hot, cold, wet, or windy it might be!

Date:

Astronomy

Jan. 13, 2014 Rise Set
Actual Time 8:42 AM CST 5:21 PM CST
Civil Twilight 8:06 AM CST 5:57 PM CST
Nautical Twilight 7:27 AM CST 6:37 PM CST
Astronomical Twilight 6:49 AM CST 7:15 PM CST
Moon 3:40 PM CST (1/13) 6:31 AM CST (1/13)
Length of Visible Light 9h 50m
Length of Day
8h 38m
Waxing Gibbous, 95% of the Moon is Illuminated
Jan 13
Waxing Gibbous
Jan 15
Full
Jan 23
Last Quarter
Jan 30
New
Feb 6
First Quarter

Hourly Weather History & Observations

Time (CST) Temp. Windchill Dew Point Humidity Pressure Visibility Wind Dir Wind Speed Gust Speed Precip Events Conditions
12:15 AM 12.2 °F -1.0 °F 8.6 °F 85% 29.65 in 10.0 mi WNW 10.4 mph - N/A   Unknown
12:35 AM 12.2 °F - 8.6 °F 85% 29.66 in 10.0 mi Calm Calm - N/A   Unknown
12:55 AM 10.4 °F - 8.6 °F 92% 29.66 in 10.0 mi Calm Calm - N/A   Unknown
1:15 AM 10.4 °F 2.2 °F 8.6 °F 92% 29.66 in 10.0 mi WSW 4.6 mph - N/A   Unknown
1:35 AM 6.8 °F -5.9 °F 5.0 °F 92% 29.64 in 10.0 mi NW 8.1 mph - N/A   Unknown
1:55 AM 5.0 °F -5.6 °F 5.0 °F 100% 29.63 in 10.0 mi West 5.8 mph - N/A   Unknown
2:15 AM 8.6 °F -3.7 °F 6.8 °F 92% 29.64 in 10.0 mi SE 8.1 mph - N/A   Unknown
2:35 AM 8.6 °F 2.0 °F 6.8 °F 92% 29.63 in 10.0 mi West 3.5 mph - N/A   Unknown
2:55 AM 6.8 °F -3.5 °F 5.0 °F 92% 29.62 in 10.0 mi WNW 5.8 mph - N/A   Unknown
3:15 AM 5.0 °F -9.1 °F 3.2 °F 92% 29.63 in 10.0 mi ESE 9.2 mph - N/A   Unknown
3:35 AM 5.0 °F -5.6 °F 3.2 °F 92% 29.62 in 10.0 mi SSW 5.8 mph - N/A   Unknown
3:55 AM 6.8 °F -3.5 °F 5.0 °F 92% 29.61 in 10.0 mi SSW 5.8 mph - N/A   Unknown
4:15 AM 8.6 °F -1.3 °F 6.8 °F 92% 29.60 in 10.0 mi SSW 5.8 mph - N/A   Unknown
4:35 AM 8.6 °F 2.0 °F 6.8 °F 92% 29.59 in 10.0 mi South 3.5 mph - N/A   Unknown
4:55 AM 8.6 °F -2.6 °F 6.8 °F 92% 29.57 in 10.0 mi SE 6.9 mph - N/A   Unknown
5:15 AM 8.6 °F -3.7 °F 6.8 °F 92% 29.57 in 10.0 mi SSE 8.1 mph - N/A   Unknown
5:35 AM 10.4 °F -1.5 °F 8.6 °F 92% 29.56 in 10.0 mi South 8.1 mph - N/A   Unknown
5:55 AM 12.2 °F -0.2 °F 10.4 °F 92% 29.55 in 10.0 mi SSW 9.2 mph - N/A   Unknown
6:15 AM 12.2 °F -1.0 °F 10.4 °F 92% 29.53 in 10.0 mi South 10.4 mph - N/A   Unknown
6:35 AM 14.0 °F -0.2 °F 10.4 °F 86% 29.52 in 10.0 mi South 12.7 mph - N/A   Unknown
6:55 AM 14.0 °F 1.2 °F 10.4 °F 86% 29.51 in 10.0 mi SSW 10.4 mph - N/A   Unknown
7:15 AM 14.0 °F -1.4 °F 12.2 °F 93% 29.49 in 10.0 mi SSW 15.0 mph - N/A   Unknown
7:35 AM 15.8 °F 4.2 °F 14.0 °F 93% 29.49 in 10.0 mi SSW 9.2 mph - N/A   Unknown
7:55 AM 15.8 °F 6.1 °F 15.8 °F 100% 29.47 in 10.0 mi South 6.9 mph - N/A   Unknown
8:15 AM 17.6 °F 8.2 °F 15.8 °F 93% 29.46 in 10.0 mi South 6.9 mph - N/A   Unknown
8:35 AM 17.6 °F 10.7 °F 15.8 °F 93% 29.46 in 10.0 mi South 4.6 mph - N/A   Unknown
8:55 AM 17.6 °F 9.3 °F 15.8 °F 93% 29.45 in 10.0 mi South 5.8 mph - N/A   Unknown
9:15 AM 15.8 °F 6.1 °F 15.8 °F 100% 29.45 in 10.0 mi SSW 6.9 mph - N/A   Unknown
9:35 AM 17.6 °F 6.4 °F 17.6 °F 100% 29.45 in 10.0 mi SSW 9.2 mph - N/A   Unknown
9:55 AM 19.4 °F 11.5 °F 17.6 °F 93% 29.47 in 10.0 mi SW 5.8 mph - N/A   Unknown
10:15 AM 19.4 °F - 19.4 °F 100% 29.46 in 10.0 mi Calm Calm - N/A   Unknown
10:35 AM 23.0 °F 18.4 °F 19.4 °F 86% 29.45 in 10.0 mi SSW 3.5 mph - N/A   Unknown
10:55 AM 23.0 °F 17.0 °F 19.4 °F 86% 29.45 in 10.0 mi South 4.6 mph - N/A   Unknown
11:15 AM 23.0 °F 12.4 °F 21.2 °F 93% 29.44 in 10.0 mi SSW 10.4 mph - N/A   Unknown
11:35 AM 23.0 °F 13.1 °F 23.0 °F 100% 29.43 in 10.0 mi SW 9.2 mph - N/A   Unknown
11:55 AM 24.8 °F 12.9 °F 23.0 °F 93% 29.43 in 10.0 mi SSW 13.8 mph - N/A   Unknown
12:15 PM 24.8 °F 12.4 °F 23.0 °F 93% 29.42 in 10.0 mi SSW 15.0 mph - N/A   Unknown
12:35 PM 24.8 °F 13.4 °F 23.0 °F 93% 29.41 in 10.0 mi SW 12.7 mph - N/A   Unknown
12:55 PM 26.6 °F 16.8 °F 24.8 °F 93% 29.40 in 10.0 mi SW 10.4 mph - N/A   Unknown
1:15 PM 26.6 °F 16.8 °F 24.8 °F 93% 29.40 in 10.0 mi SW 10.4 mph - N/A   Unknown
1:35 PM 28.4 °F 19.1 °F 24.8 °F 86% 29.39 in 10.0 mi SW 10.4 mph - N/A   Unknown
1:55 PM 28.4 °F 18.5 °F 26.6 °F 93% 29.38 in 10.0 mi SW 11.5 mph - N/A   Unknown
2:15 PM 28.4 °F 19.7 °F 26.6 °F 93% 29.38 in 10.0 mi SW 9.2 mph - N/A   Unknown
2:35 PM 28.4 °F 21.2 °F 28.4 °F 100% 29.41 in 10.0 mi WSW 6.9 mph - N/A   Unknown
2:55 PM 30.2 °F 22.6 °F 30.2 °F 100% 29.41 in 1.2 mi West 8.1 mph - 0.06 in Snow Light Snow
3:15 PM 30.2 °F 21.3 °F 30.2 °F 100% 29.42 in 2.0 mi West 10.4 mph - 0.06 in Snow Light Snow
3:35 PM 30.2 °F 21.3 °F 30.2 °F 100% 29.44 in 7.0 mi WNW 10.4 mph - 0.07 in Snow Light Snow
3:55 PM 30.2 °F 22.6 °F 30.2 °F 100% 29.46 in 1.0 mi NNW 8.1 mph - 0.22 in Snow Light Snow
4:15 PM 30.2 °F 22.6 °F 30.2 °F 100% 29.45 in 4.0 mi WNW 8.1 mph - 0.01 in Snow Light Snow
4:35 PM 32.0 °F 22.5 °F 32.0 °F 100% 29.47 in 10.0 mi WNW 12.7 mph - 0.02 in Snow Light Snow
4:55 PM 32.0 °F 18.6 °F 32.0 °F 100% 29.49 in 10.0 mi NW 25.3 mph 29.9 mph 0.02 in Rain Light Rain
5:15 PM 32.0 °F 18.4 °F 32.0 °F 100% 29.51 in 10.0 mi NNW 26.5 mph 34.5 mph N/A   Unknown
5:35 PM 30.2 °F 17.1 °F 28.4 °F 93% 29.51 in 10.0 mi NNW 21.9 mph 25.3 mph N/A   Unknown
5:55 PM 30.2 °F 16.5 °F 28.4 °F 93% 29.53 in 8.0 mi NW 24.2 mph 34.5 mph N/A   Unknown
6:15 PM 30.2 °F 14.5 °F 30.2 °F 100% 29.55 in 6.0 mi NW 33.4 mph 41.4 mph N/A   Mist
6:35 PM 28.4 °F 12.0 °F 28.4 °F 100% 29.57 in 2.0 mi NW 33.4 mph 39.1 mph N/A Rain Light Freezing Rain
6:55 PM 28.4 °F 11.6 °F 28.4 °F 100% 29.60 in 2.0 mi NW 35.7 mph 43.7 mph N/A Rain Light Freezing Rain
7:15 PM 26.6 °F 8.9 °F 24.8 °F 93% 29.63 in 2.0 mi NW 36.8 mph 44.9 mph N/A Rain Light Freezing Rain
7:35 PM 26.6 °F 10.0 °F 24.8 °F 93% 29.64 in 8.0 mi NW 31.1 mph 42.6 mph N/A   Unknown
7:55 PM 24.8 °F 6.8 °F 23.0 °F 93% 29.66 in 5.0 mi NW 34.5 mph 43.7 mph N/A Rain Light Freezing Rain
8:15 PM 24.8 °F 6.4 °F 23.0 °F 93% 29.68 in 8.0 mi NNW 36.8 mph 49.5 mph N/A   Unknown
8:35 PM 23.0 °F 4.6 °F 23.0 °F 100% 29.70 in 10.0 mi NW 33.4 mph 43.7 mph N/A   Unknown
8:55 PM 23.0 °F 4.9 °F 21.2 °F 93% 29.73 in 9.0 mi NNW 32.2 mph 42.6 mph N/A Rain Light Freezing Rain
9:15 PM 23.0 °F 3.9 °F 21.2 °F 93% 29.76 in 10.0 mi NW 36.8 mph 42.6 mph N/A   Unknown
9:35 PM 23.0 °F 4.1 °F 17.6 °F 80% 29.78 in 10.0 mi NW 35.7 mph 44.9 mph N/A   Unknown
9:55 PM 21.2 °F 3.3 °F 19.4 °F 93% 29.79 in 10.0 mi NW 28.8 mph 38.0 mph N/A   Unknown
10:15 PM 21.2 °F 3.3 °F 17.6 °F 86% 29.81 in 10.0 mi NW 28.8 mph 39.1 mph N/A   Unknown
10:35 PM 19.4 °F 1.8 °F 15.8 °F 86% 29.83 in 10.0 mi NW 25.3 mph 35.7 mph N/A   Unknown
10:55 PM 19.4 °F 1.8 °F 15.8 °F 86% 29.85 in 10.0 mi NW 25.3 mph 34.5 mph N/A   Unknown
11:15 PM 17.6 °F -0.6 °F 15.8 °F 93% 29.86 in 10.0 mi NW 25.3 mph 31.1 mph N/A   Unknown
11:35 PM 17.6 °F 0.1 °F 15.8 °F 93% 29.87 in 10.0 mi NW 23.0 mph 31.1 mph N/A   Unknown
11:55 PM 17.6 °F 1.3 °F 14.0 °F 86% 29.88 in 10.0 mi NW 19.6 mph 25.3 mph N/A   Unknown